Weather History for KFSD - October, 2013

Change the Weather History Date:

Monday, October 14, 2013

  Actual Average Record
Temperature  
Mean Temperature 48 °F 49 °F  
Max Temperature 52 °F 61 °F 88 °F (1958)
Min Temperature 44 °F 37 °F 19 °F (1937)
Degree Days  
Heating Degree Days 17 16  
Month to date heating degree days 126 193  
Since 1 July heating degree days 226 397  
Cooling Degree Days 0 0  
Month to date cooling degree days 3 0  
Year to date cooling degree days 787 685  
Moisture  
Dew Point 43 °F    
Average Humidity 71    
Maximum Humidity 93    
Minimum Humidity 48    
Precipitation  
Precipitation 2.27 in 0.08 in 2.27 in (2013)
Month to date precipitation 2.52 1.17  
Year to date precipitation 23.71 23.33  
Snow  
Snow 0.00 in 0.00 in 0.40 in (1966)
Month to date snowfall 0.0 0.2  
Since 1 July snowfall 0.0 0.2  
Since 1 September snowfall 0.0 0.2  
Snow Depth 0.00 in    
Sea Level Pressure  
Sea Level Pressure 29.98 in    
Wind  
Wind Speed 15 mph (SE)    
Max Wind Speed 32 mph    
Max Gust Speed 41 mph    
Visibility 6 miles    
Events Rain , Thunderstorm    
T = Trace of Precipitation, MM = Missing Value Source: NWS Daily Summary

Daily Weather History Graph

Daily Weather History Graph

Search for Another Location

Airport or City:

Trip Planner

Search our weather history database for the weather conditions in past years. The results will help you decide how hot, cold, wet, or windy it might be!

Date:

Astronomy

Oct. 14, 2013 Rise Set
Actual Time 7:40 AM CDT 6:44 PM CDT
Civil Twilight 7:11 AM CDT 7:13 PM CDT
Nautical Twilight 6:38 AM CDT 7:46 PM CDT
Astronomical Twilight 6:04 AM CDT 8:19 PM CDT
Moon 4:21 PM CDT (10/14) 2:50 AM CDT (10/14)
Length of Visible Light 12h 02m
Length of Day
11h 04m
Waxing Gibbous, 79% of the Moon is Illuminated
Oct 14
Waxing Gibbous
Oct 18
Full
Oct 26
Last Quarter
Nov 3
New
Nov 9
First Quarter

Hourly Weather History & Observations

Time (CDT) Temp. Windchill Dew Point Humidity Pressure Visibility Wind Dir Wind Speed Gust Speed Precip Events Conditions
12:56 AM 51.1 °F - 32.0 °F 48% 30.30 in 10.0 mi SE 9.2 mph - N/A   Mostly Cloudy
1:56 AM 51.1 °F - 33.1 °F 50% 30.31 in 10.0 mi SE 8.1 mph - N/A   Overcast
2:56 AM 50.0 °F - 36.0 °F 59% 30.29 in 10.0 mi SE 10.4 mph - 0.00 in Rain Light Rain
3:56 AM 46.9 °F - 41.0 °F 80% 30.28 in 5.0 mi SE 11.5 mph - 0.07 in Rain Rain
4:56 AM 46.0 °F 41.4 °F 44.1 °F 93% 30.26 in 5.0 mi ESE 9.2 mph - 0.27 in Rain Rain
5:56 AM 46.0 °F 41.0 °F 44.1 °F 93% 30.23 in 10.0 mi ESE 10.4 mph - 0.16 in Rain Light Rain
6:56 AM 46.0 °F 41.0 °F 41.0 °F 83% 30.24 in 10.0 mi ESE 10.4 mph - 0.04 in Rain Light Rain
7:56 AM 45.0 °F 40.1 °F 41.0 °F 86% 30.23 in 10.0 mi South 9.2 mph - 0.03 in Rain Light Rain
8:56 AM 45.0 °F 38.2 °F 41.0 °F 86% 30.18 in 6.0 mi SE 15.0 mph 21.9 mph 0.06 in Rain Light Rain
9:56 AM 44.1 °F 37.7 °F 41.0 °F 89% 30.16 in 4.0 mi SE 12.7 mph 23.0 mph 0.09 in Rain Rain
10:56 AM 45.0 °F 37.6 °F 41.0 °F 86% 30.12 in 5.0 mi SE 17.3 mph 25.3 mph 0.08 in Rain Rain
11:56 AM 46.0 °F 37.4 °F 42.1 °F 86% 30.07 in 10.0 mi SSE 25.3 mph 33.4 mph 0.05 in Rain Light Rain
12:56 PM 46.0 °F 38.0 °F 42.1 °F 86% 30.01 in 5.0 mi SE 21.9 mph 34.5 mph 0.07 in Rain Rain
1:15 PM 46.4 °F 38.3 °F 42.8 °F 87% 29.96 in 2.5 mi SE 23.0 mph 36.8 mph 0.06 in Rain Heavy Rain
1:36 PM 46.4 °F 38.7 °F 42.8 °F 87% 29.95 in 4.0 mi SE 20.7 mph 33.4 mph 0.11 in Rain Rain
1:44 PM 44.6 °F 35.1 °F 42.8 °F 93% 29.94 in 4.0 mi SE 27.6 mph 38.0 mph 0.13 in Rain , Thunderstorm Thunderstorms and Rain
1:56 PM 45.0 °F 36.0 °F 42.1 °F 90% 29.96 in 4.0 mi SE 25.3 mph 38.0 mph 0.16 in Rain , Thunderstorm Thunderstorms and Rain
2:00 PM 44.6 °F 37.2 °F 42.8 °F 93% 29.94 in 1.8 mi SE 17.3 mph 38.0 mph 0.01 in Rain , Thunderstorm Heavy Thunderstorms and Rain
2:05 PM 44.6 °F 38.8 °F 42.8 °F 93% 29.97 in 4.0 mi SW 11.5 mph 33.4 mph 0.04 in Rain , Thunderstorm Light Thunderstorms and Rain
2:10 PM 44.6 °F 38.4 °F 42.8 °F 93% 30.02 in 4.0 mi West 12.7 mph 19.6 mph 0.05 in Rain , Thunderstorm Light Thunderstorms and Rain
2:20 PM 44.6 °F 41.4 °F 42.8 °F 93% 30.01 in 2.5 mi WSW 5.8 mph - 0.09 in Rain Heavy Rain
2:56 PM 45.0 °F 37.1 °F 42.1 °F 90% 29.96 in 1.8 mi ESE 19.6 mph 24.2 mph 0.30 in Rain Heavy Rain
3:02 PM 44.6 °F 37.4 °F 42.8 °F 93% 29.93 in 2.5 mi ESE 16.1 mph 24.2 mph 0.04 in Rain Heavy Rain
3:49 PM 44.6 °F 39.2 °F 42.8 °F 93% 29.89 in 3.0 mi East 10.4 mph - 0.15 in Rain Light Rain
3:56 PM 45.0 °F 40.6 °F 43.0 °F 93% 29.91 in 4.0 mi East 8.1 mph - 0.17 in Rain Light Rain
4:03 PM 44.6 °F 41.4 °F 42.8 °F 93% 29.91 in 6.0 mi NW 5.8 mph - 0.00 in Rain Light Rain
4:11 PM 44.6 °F 39.2 °F 42.8 °F 93% 29.88 in 2.0 mi ENE 10.4 mph - 0.01 in Rain Heavy Rain
4:36 PM 44.6 °F 40.2 °F 44.6 °F 100% 29.91 in 2.0 mi East 8.1 mph - 0.17 in Rain Heavy Rain
4:38 PM 44.6 °F 39.7 °F 44.6 °F 100% 29.91 in 2.0 mi East 9.2 mph - 0.18 in Rain , Thunderstorm Heavy Thunderstorms and Rain
4:56 PM 46.0 °F 40.6 °F 45.0 °F 96% 29.89 in 2.0 mi East 11.5 mph - 0.28 in Rain , Thunderstorm Heavy Thunderstorms and Rain
5:19 PM 46.4 °F 41.5 °F 46.4 °F 100% 29.88 in 2.0 mi SE 10.4 mph - 0.09 in Rain Heavy Rain
5:46 PM 46.4 °F 41.9 °F 46.4 °F 100% 29.87 in 2.0 mi East 9.2 mph - 0.18 in Rain , Thunderstorm Thunderstorms and Rain
5:56 PM 46.9 °F - 46.9 °F 100% 29.89 in 2.0 mi ESE 10.4 mph - 0.20 in Rain , Thunderstorm Thunderstorms and Rain
6:06 PM 46.4 °F 41.5 °F 46.4 °F 100% 29.87 in 2.0 mi ESE 10.4 mph - 0.01 in Rain Rain
6:13 PM 46.4 °F 40.1 °F 46.4 °F 100% 29.87 in 3.0 mi ESE 15.0 mph 23.0 mph 0.03 in Rain Rain
6:25 PM 46.4 °F 38.7 °F 46.4 °F 100% 29.84 in 5.0 mi ESE 20.7 mph - 0.06 in Rain Rain
6:56 PM 46.9 °F - 46.0 °F 97% 29.82 in 5.0 mi ESE 24.2 mph 32.2 mph 0.11 in Rain Rain
7:56 PM 48.0 °F - 46.0 °F 93% 29.76 in 10.0 mi ESE 28.8 mph 41.4 mph 0.02 in Rain Light Rain
8:56 PM 48.9 °F - 46.0 °F 90% 29.76 in 10.0 mi ESE 19.6 mph 34.5 mph 0.00 in   Overcast
9:02 PM 48.2 °F - 46.4 °F 93% 29.74 in 10.0 mi ESE 20.7 mph 27.6 mph N/A   Overcast
9:56 PM 50.0 °F - 46.9 °F 89% 29.73 in 10.0 mi ESE 20.7 mph 27.6 mph N/A   Overcast
10:56 PM 51.1 °F - 48.0 °F 89% 29.71 in 10.0 mi SE 13.8 mph 31.1 mph 0.00 in Rain Light Rain
10:59 PM 50.0 °F - 48.2 °F 94% 29.69 in 10.0 mi SE 19.6 mph 31.1 mph 0.00 in Rain Light Rain
11:56 PM 51.1 °F - 50.0 °F 96% 29.69 in 7.0 mi SSE 15.0 mph 23.0 mph 0.03 in Rain Light Rain